Location: Feydey
(46.3431°N, 7.0106°E)
Time: 20:40:32
(UTC+00:00)

Cosmos 1328 - Pass Details

Date: 27 October 2021
Orbit: 529 x 552 km, 82.5° (Epoch: 03 December)

Event Time Altitude Azimuth Distance (km) Brightness Sun altitude
Rises 05:25:21 0° 159° (SSE) 2,677 7.8 -7.6°
Reaches altitude 10° 05:27:43 10° 147° (SSE) 1,796 7.1 -7.2°
Maximum altitude 05:31:02 26° 90° (E) 1,082 6.4 -6.7°
Drops below altitude 10° 05:34:24 10° 32° (NNE) 1,821 6.8 -6.1°
Sets 05:36:49 0° 20° (NNE) 2,724 7.5 -5.7°
